Regional Weather Roundup
Issued by NWS

Home | Current Version | Previous Version | Graphics & Text | Print | Product List | Glossary On
Versions: 1 2 3 4 5 6 7 8 9 10 11 12 13 14 15 16 17 18 19 20 21 22 23 24 25 26 27 28 29 30 31 32 33 34 35 36 37 38 39 40 41 42 43 44 45 46 47 48 49 50
000
ASUS43 KMPX 251110
RWRMN
WEATHER ROUNDUP FOR MINNESOTA
NATIONAL WEATHER SERVICE TWIN CITIES/CHANHASSEN MN
500 AM CST TUE NOV 25 2014


NOTE: "FAIR" INDICATES FEW OR NO CLOUDS BELOW 12,000 FEET WITH NO
SIGNIFICANT WEATHER AND/OR OBSTRUCTIONS TO VISIBILITY. N/A MEANS
CURRENT SKY AND/OR WEATHER CONDITIONS ARE NOT AVAILABLE.

MNZ060>063-068>070-251200-
   Twin Cities Metro

CITY           SKY/WX    TMP DP  RH WIND       PRES   REMARKS
TWIN CITIES    CLEAR     11   7  84 NW7       30.02R WCI   0
ST PAUL        CLEAR     12   7  80 NW10      30.04R WCI  -1
CRYSTAL        CLEAR     13   6  74 NW8       30.00R WCI   2
BLAINE         CLEAR     12   9  85 W5        30.00R WCI   4
LAKEVILLE      CLEAR      9   7  92 W6        30.01R WCI  -1
EDEN PRAIRIE   CLEAR     12   7  80 NW6       30.01R WCI   3
SOUTH ST PAUL  CLEAR     13   8  81 NW5       30.02R WCI   6
LAKE ELMO      FAIR      12  10  92 NW6       30.01R WCI   3
$$
MNZ001>005-007-008-013>017-022>024-027-028-251200-
   Northwest Minnesota

CITY           SKY/WX    TMP DP  RH WIND       PRES   REMARKS
BEMIDJI        CLEAR      1  -3  87 CALM      29.92F
HALLOCK        PTCLDY     7   3  85 S6        29.93F WCI  -3
ROSEAU         CLEAR      1  -6  71 S5        29.93S WCI  -8
WARROAD        CLEAR      1  -4  78 SW5       29.92S WCI  -8
THIEF RVR FALL CLOUDY    10   7  85 SW6       29.95R WCI   1
CROOKSTON      CLOUDY    14   9  79 S7        29.97F WCI   4
FOSSTON        CLOUDY     7   3  85 S6        29.94S WCI  -3
DETROIT LAKES  MOCLDY    12   9  85 SW5       29.96S WCI   4
MOORHEAD       CLOUDY    16  10  79 S3        29.99S
PARK RAPIDS    CLOUDY     6   2  83 CALM      29.93F
MAHNOMEN       CLOUDY    10   5  80 S6        29.95S WCI   0
$$
MNZ006-009>011-018-025>026-251200-
   North Central Minnesota

CITY           SKY/WX    TMP DP  RH WIND       PRES   REMARKS
BAUDETTE       CLEAR     -2  -6  83 SW6       29.91S WCI -14
FLAG ISLAND    MOCLDY     0  -4  85 CALM      29.90S
INTL FALLS     CLEAR     -1  -5  82 SW6       29.92R WCI -13
WASKISH        CLEAR      0  -4  85 CALM      29.93S
BIG FORK       CLEAR      0  -2  92 CALM      29.93S
LONGVILLE      CLEAR      0  -2  92 CALM      29.95S
GRAND RAPIDS   CLOUDY     7   3  85 W6        29.92S WCI  -3
CRANE LAKE     LGT SNOW   7   3  85 CALM      29.93S
ORR            FLURRIES   7   3  85 W3        29.88S
COOK           FLURRIES   9   7  92 W6        29.91S WCI  -1
WALKER         FAIR       2  -1  85 CALM      29.94F
$$
MNZ012-019>021-037-251200-
   Northeast Minnesota

CITY           SKY/WX    TMP DP  RH WIND       PRES   REMARKS
DULUTH         FLURRIES  11   6  81 NW12G20   29.88R WCI  -3
ELY            FLURRIES   0  -4  85 CALM      29.89R
HIBBING        PTCLDY     7   2  80 NW5       29.92R WCI  -2
EVELETH        LGT SNOW  10   7  85 W5        29.92R WCI   2
DULUTH HARBOR  PTCLDY    18  10  73 W6        29.97R WCI   9
TWO HARBORS    PTCLDY    14   9  79 NW7       29.86R WCI   4
SILVER BAY     CLEAR     12   7  79 CALM      29.86R
GRAND MARAIS     N/A     14   5  67 CALM      29.88R
G MARAIS ARPRT FLURRIES   3   0  85 NW14G22   29.78S WCI -15
$$
MNZ029>031-032-039>041-046>048-054>057-064-251200-
   West Central Minnesota

CITY           SKY/WX    TMP DP  RH WIND       PRES   REMARKS
FERGUS FALLS   CLOUDY    12   5  73 S3        30.02F
WHEATON        CLOUDY    12   7  79 CALM      30.02S
MORRIS           N/A      7   3  85 CALM      29.99S
ALEXANDRIA     CLOUDY     9   4  80 W5        29.98R WCI   1
ELBOW LAKE       N/A     10   5  79 SW3       29.99S
WADENA         CLOUDY     9   5  85 W5        29.95S WCI   0
GLENWOOD       CLEAR      7   3  85 CALM      29.98S
APPLETON       CLEAR     12   7  79 CALM      30.02S
BENSON         MOCLDY     5   1  85 CALM      30.01R
ORTONVILLE     MOCLDY    12   3  67 CALM      30.00F
MADISON        PTCLDY    18   9  68 SW6       30.02F WCI   9
WILLMAR        FAIR      10   3  72 NW6       30.01F WCI   1
$$
MNZ033>034-036-042>043-049>051-058-059-251200-
   Central Minnesota

CITY           SKY/WX    TMP DP  RH WIND       PRES   REMARKS
ST CLOUD       CLEAR      8   3  80 NW5       29.99F WCI   0
SAUK CENTRE    FAIR       5   2  88 CALM      29.99S
PAYNESVILLE    CLEAR      3   0  88 SW3       30.00F
AITKIN         CLEAR      9   3  78 CALM      29.95S
PINE RIVER     CLEAR      3   0  85 CALM      29.99S
BRAINERD       CLEAR      6   3  87 NW5       29.97S WCI  -3
STAPLES        PTCLDY     3   1  92 CALM      29.96S
LONG PRAIRIE   FAIR       7   3  85 CALM      29.98S
LITTLE FALLS   CLEAR      7   3  85 CALM      29.99F
LITCHFIELD     CLEAR     10   9  92 NW3       30.01S
BUFFALO        CLEAR     11   6  81 W7        30.02R WCI   0
MAPLE LAKE     CLEAR     10   7  87 W3        30.01S
$$
MNZ037-044-045-052-053-251200-
   East Central Minnesota

CITY           SKY/WX    TMP DP  RH WIND       PRES   REMARKS
PRINCETON      CLEAR     10   5  79 W7        29.99R WCI   0
MORA           CLEAR     12   9  85 NW7       29.99R WCI   2
CAMBRIDGE      CLEAR     10   3  72 W5        29.97S WCI   2
RUSH CITY      CLEAR      9   7  89 CALM      29.99R
MOOSE LAKE     CLEAR     12   9  85 NW3       29.93S
HINCKLEY       FAIR      12  10  92 CALM      29.96S
CLOQUET        FLURRIES  10   7  85 NW10      29.91R WCI  -3
MCGREGOR       CLEAR     10   7  85 W5        29.96R WCI   2
$$
MNZ071>073-080-081-089-090-097-098-251200-
   Southwest Minnesota

CITY           SKY/WX    TMP DP  RH WIND       PRES   REMARKS
MONTEVIDEO     CLOUDY    12   7  79 W5        30.03S WCI   4
GRANITE FALLS  MOCLDY    10   4  77 SW5       30.04F WCI   2
CANBY          CLOUDY    18   7  62 W3        30.02F
MARSHALL       MOCLDY    12   5  73 W7        30.02F WCI   2
REDWOOD FALLS  PTCLDY    11   5  77 W6        30.03F WCI   1
OLIVIA         CLEAR     12   9  85 W3        30.01F
PIPESTONE      PTCLDY    10   5  79 CALM      30.01S
WINDOM         CLEAR     10   5  79 W3        30.02S
WORTHINGTON    CLEAR      9   3  78 W7        30.03S WCI  -3
JACKSON        CLEAR     14   5  67 W7        30.03S WCI   4
TRACY          CLEAR     13   5  69 SW6       30.02F WCI   4
SLAYTON        CLEAR     12   5  73 CALM      30.01F
$$
MNZ065>067-074>077-082>085-091>093-251200-
   South Central Minnesota

CITY           SKY/WX    TMP DP  RH WIND       PRES   REMARKS
MANKATO        CLEAR     10   3  72 NW13      30.02R WCI  -5
NEW ULM        CLEAR      9   5  85 W7        30.04R WCI  -3
ST JAMES       CLEAR     12   7  79 W10       30.05S WCI  -1
FAIRMONT       CLEAR     12   5  73 W12       30.03S WCI  -2
GLENCOE        CLEAR     12   8  86 W6        30.01S WCI   2
FARIBAULT      CLEAR     10   7  85 W6        30.01S WCI   1
OWATONNA       CLEAR     10   7  85 W9        30.01R WCI  -2
WASECA         CLEAR     12   5  73 W8        30.03S WCI   1
ALBERT LEA     CLEAR     10   9  92 NW5       30.00R WCI   2
$$
MNZ078>079-086>088-094>096-251200-
   Southeast Minnesota

CITY           SKY/WX    TMP DP  RH WIND       PRES   REMARKS
ROCHESTER      PTCLDY    10   7  87 NW10      29.98R WCI  -4
RED WING       FLURRIES  18  10  73 W8        30.00R WCI   7
STANTON        CLEAR     11   7  83 W6        30.00S WCI   2
DODGE CENTER   PTCLDY    10   9  92 NW13      29.98R WCI  -5
WINONA         CLOUDY    21  14  73 NW10      30.00R WCI  10
AUSTIN         CLEAR     10   7  85 NW9       30.00R WCI  -2
PRESTON        FLURRIES  12   8  85 NW13G20   29.98R WCI  -3
$$
ABBREVIATIONS USED IN REMARKS
   TC - TEMPERATURES IN CELSIUS
  WCI - WIND CHILL INDEX
   HX - HEAT INDEX
  VSB - VISIBILITY
$$



USA.gov is the U.S. government's official web portal to all federal, state and local government web resources and services.